Date String (YYYY-MM-DD hh:mm:ss) UTC,Instrument flags,Ambient pressure (hPa),Sample flow (lpm),Bypass flow (lpm),Sample temperature (°C),Ambient temperature (°C),ASC tube jacket temperature (°C),LED temperature (°C),Box temperature (°C),Sample RH (%),Span deviation,Mass concentration (μg/m³),Mass concentration (μg/m³),Mass concentration (μg/m³)
DateTimeUTC,F1_M11,P_M11,Q1_M11,Q2_M11,T1_M11,T2_M11,T3_M11,T4_M11,T5_M11,U1_M11,ZSPAN_M11,X2_M11,X0_M11,X1_M11
2022-09-26 18:00:00,,0833.0,4.99,0.00,30.1,28.8,00.0,38.7,32.0,16.6,0000.0,0004.47,0008.47,0003.84
2022-09-26 18:01:00,,0833.0,5.00,0.00,30.1,28.9,00.0,38.7,32.0,17.1,0000.0,0004.45,0009.22,0003.83
2022-09-26 18:02:00,,0833.0,5.01,0.00,30.1,29.0,00.0,38.8,32.1,17.1,0000.0,0004.44,0010.21,0003.84
2022-09-26 18:03:00,,0833.0,4.99,0.00,30.2,29.1,00.0,38.8,32.1,16.9,0000.0,0004.47,0010.56,0003.85
2022-09-26 18:04:00,,0833.0,4.99,0.00,30.2,29.2,00.0,38.8,32.2,16.7,0000.0,0004.50,0010.68,0003.87
2022-09-26 18:05:00,,0833.0,5.01,0.00,30.2,29.3,00.0,38.8,32.2,15.8,0000.0,0004.53,0010.75,0003.87
2022-09-26 18:06:00,,0833.0,5.00,0.00,30.3,29.3,00.0,38.9,32.2,15.9,0000.0,0004.52,0010.69,0003.86
2022-09-26 18:07:00,,0833.0,5.00,0.00,30.3,28.5,00.0,38.9,32.2,15.7,0000.0,0004.48,0010.52,0003.85
2022-09-26 18:08:00,,0833.0,5.00,0.00,30.3,27.2,00.0,38.8,32.1,15.5,0000.0,0004.42,0010.35,0003.85
2022-09-26 18:09:00,,0833.0,5.00,0.00,30.2,26.9,00.0,38.8,32.0,15.6,0000.0,0004.38,0009.93,0003.84
2022-09-26 18:10:00,,0833.1,5.00,0.00,30.2,27.2,00.0,38.8,31.9,15.5,0000.0,0004.33,0009.50,0003.81
2022-09-26 18:11:00,,0833.0,5.01,0.00,30.1,27.5,00.0,38.8,31.9,15.1,0000.0,0004.31,0009.53,0003.79
2022-09-26 18:12:00,,0833.0,5.00,0.00,30.1,27.8,00.0,38.7,31.9,14.9,0000.0,0004.24,0008.63,0003.76
2022-09-26 18:13:00,,0833.0,4.99,0.00,30.1,28.1,00.0,38.7,31.9,15.0,0000.0,0004.17,0007.40,0003.73
2022-09-26 18:14:00,,0833.0,5.01,0.00,30.1,28.4,00.0,38.7,31.9,15.5,0000.0,0004.06,0006.58,0003.68
2022-09-26 18:15:00,,0833.0,4.99,0.00,30.1,28.6,00.0,38.8,32.0,15.4,0000.0,0003.98,0006.18,0003.64
2022-09-26 18:16:00,,0833.0,5.00,0.00,30.1,28.7,00.0,38.8,32.0,14.9,0000.0,0003.96,0006.15,0003.63
2022-09-26 18:17:00,,0833.0,5.00,0.00,30.1,28.9,00.0,38.8,32.1,15.0,0000.0,0003.96,0007.34,0003.60
2022-09-26 18:18:00,,0833.0,5.00,0.00,30.2,29.0,00.0,38.8,32.1,14.8,0000.0,0003.91,0007.29,0003.58
2022-09-26 18:19:00,,0833.0,5.01,0.00,30.2,29.1,00.0,38.8,32.1,14.9,0000.0,0003.92,0007.38,0003.57
2022-09-26 18:20:00,,0833.0,5.01,0.00,30.2,29.2,00.0,38.8,32.1,15.1,0000.0,0003.95,0007.87,0003.55
2022-09-26 18:21:00,,0833.1,5.00,0.00,30.2,29.3,00.0,38.8,32.2,15.1,0000.0,0003.96,0008.40,0003.54
2022-09-26 18:22:00,,0833.0,4.99,0.00,30.3,29.0,00.0,38.9,32.2,15.3,0000.0,0003.99,0008.98,0003.55
2022-09-26 18:23:00,,0833.0,5.01,0.00,30.3,27.7,00.0,38.8,32.1,14.5,0000.0,0004.00,0009.22,0003.55
2022-09-26 18:24:00,,0833.0,5.00,0.00,30.2,26.9,00.0,38.8,32.0,14.9,0000.0,0004.04,0009.38,0003.55
2022-09-26 18:25:00,,0833.0,4.99,0.00,30.2,27.0,00.0,38.8,32.0,14.8,0000.0,0004.06,0009.50,0003.55
2022-09-26 18:26:00,,0833.1,5.00,0.00,30.1,27.3,00.0,38.8,31.8,15.4,0000.0,0004.06,0009.96,0003.55
2022-09-26 18:27:00,,0833.0,4.98,0.00,30.1,27.6,00.0,38.8,31.8,15.4,0000.0,0004.04,0009.99,0003.54
2022-09-26 18:28:00,,0833.1,5.01,0.00,30.1,28.0,00.0,38.7,31.9,15.0,0000.0,0004.00,0009.52,0003.55
2022-09-26 18:29:00,,0833.1,5.01,0.00,30.1,28.2,00.0,38.7,31.9,14.9,0000.0,0004.00,0009.39,0003.56
2022-09-26 18:30:00,,0833.0,4.98,0.00,30.1,28.4,00.0,38.7,32.0,14.5,0000.0,0003.98,0009.34,0003.56
2022-09-26 18:31:00,,0833.1,5.01,0.00,30.1,28.6,00.0,38.7,32.0,14.6,0000.0,0003.94,0008.80,0003.56
2022-09-26 18:32:00,,0833.0,4.99,0.00,30.1,28.8,00.0,38.8,32.0,14.9,0000.0,0003.91,0008.22,0003.56
2022-09-26 18:33:00,,0833.0,5.00,0.00,30.1,28.9,00.0,38.8,32.1,14.8,0000.0,0003.89,0007.62,0003.54
2022-09-26 18:34:00,,0833.1,4.99,0.00,30.2,29.0,00.0,38.8,32.1,14.9,0000.0,0003.92,0007.52,0003.54
2022-09-26 18:35:00,,0833.0,5.00,0.00,30.2,29.1,00.0,38.8,32.1,15.0,0000.0,0003.91,0007.44,0003.55
2022-09-26 18:36:00,,0833.0,5.01,0.00,30.2,28.7,00.0,38.8,32.1,15.2,0000.0,0003.95,0007.46,0003.57
2022-09-26 18:37:00,,0833.0,5.00,0.00,30.2,27.3,00.0,38.8,32.0,15.1,0000.0,0004.00,0007.08,0003.59
2022-09-26 18:38:00,,0833.0,4.99,0.00,30.1,26.7,00.0,38.7,31.9,15.0,0000.0,0004.06,0007.36,0003.62
2022-09-26 18:39:00,,0833.0,4.99,0.00,30.1,26.9,00.0,38.7,31.9,15.3,0000.0,0004.09,0007.19,0003.63
2022-09-26 18:40:00,,0833.0,5.00,0.00,30.0,27.2,00.0,38.7,31.7,15.3,0000.0,0004.13,0007.35,0003.64
2022-09-26 18:41:00,,0833.0,5.00,0.00,30.0,27.5,00.0,38.7,31.8,15.4,0000.0,0004.14,0007.41,0003.65
2022-09-26 18:42:00,,0833.0,5.01,0.00,30.0,27.8,00.0,38.6,31.8,15.5,0000.0,0004.17,0007.68,0003.67
2022-09-26 18:43:00,,0833.0,4.99,0.00,30.0,28.1,00.0,38.7,31.8,15.8,0000.0,0004.25,0008.15,0003.69
2022-09-26 18:44:00,,0833.0,5.01,0.00,30.0,28.3,00.0,38.7,31.9,15.6,0000.0,0004.31,0008.61,0003.72
2022-09-26 18:45:00,,0833.0,4.99,0.00,30.0,28.5,00.0,38.7,31.9,15.6,0000.0,0004.31,0008.79,0003.74
2022-09-26 18:46:00,,0832.9,5.02,0.00,30.0,28.7,00.0,38.7,31.9,15.6,0000.0,0004.30,0009.45,0003.74
2022-09-26 18:47:00,,0832.9,4.99,0.00,30.0,28.8,00.0,38.7,32.0,15.2,0000.0,0004.29,0009.79,0003.73
2022-09-26 18:48:00,,0833.0,5.00,0.00,30.1,28.9,00.0,38.7,32.0,15.1,0000.0,0004.28,0009.70,0003.72
2022-09-26 18:49:00,,0832.9,4.99,0.00,30.1,29.0,00.0,38.7,32.1,15.2,0000.0,0004.27,0009.52,0003.71
2022-09-26 18:50:00,,0832.8,5.01,0.00,30.2,29.0,00.0,38.7,32.1,15.4,0000.0,0004.24,0009.42,0003.70
2022-09-26 18:51:00,,0832.9,5.00,0.00,30.2,27.9,00.0,38.7,32.0,15.2,0000.0,0004.22,0009.38,0003.71
2022-09-26 18:52:00,,0833.0,4.98,0.00,30.1,26.8,00.0,38.7,31.9,15.2,0000.0,0004.27,0009.86,0003.71
2022-09-26 18:53:00,,0833.0,5.01,0.00,30.1,26.8,00.0,38.6,31.9,15.2,0000.0,0004.31,0010.19,0003.72
2022-09-26 18:54:00,,0832.9,4.99,0.00,30.0,27.0,00.0,38.6,31.7,15.2,0000.0,0004.29,0009.87,0003.73
2022-09-26 18:55:00,,0832.9,4.99,0.00,30.0,27.4,00.0,38.6,31.7,15.5,0000.0,0004.27,0009.68,0003.73
2022-09-26 18:56:00,,0832.9,5.00,0.00,29.9,27.7,00.0,38.6,31.7,15.5,0000.0,0004.24,0009.34,0003.72
2022-09-26 18:57:00,,0832.9,5.01,0.00,29.9,28.0,00.0,38.6,31.8,15.5,0000.0,0004.25,0009.02,0003.73
2022-09-26 18:58:00,,0832.9,5.01,0.00,30.0,28.2,00.0,38.6,31.8,15.7,0000.0,0004.26,0008.92,0003.75
2022-09-26 18:59:00,,0832.8,5.00,0.00,30.0,28.4,00.0,38.6,31.9,15.7,0000.0,0004.28,0009.52,0003.77
